Lid_Strength_Index
-0 0 0 3 10 10 12 10 7 8 8 6 5 6 8 7 9 13 2 1 1 0 -0 -1 -1 -2 -2 -2 -2 -2 -2 -1 -2 -2 -2 -2 -2 -2 -2 -2 -2 -2 -2 -2 -2 -2 -2 -2 -2
1 1 2 5 11 13 12 8 9 7 6 6 6 6 7 9 5 4 3 1 0 -0 -0 -0 -1 -1 -1 -2 -1 -1 -2 -2 -2 -2 -2 -2 -2 -2 -2 -2 -3 -2 -2 -2 -2 -2 -2 -2 -2
0 2 6 8 11 12 11 8 7 6 6 6 7 6 6 7 4 4 1 1 0 0 -0 -1 -1 -1 -1 -1 -1 -1 -1 -1 -2 -2 -2 -2 -2 -2 -2 -2 -2 -2 -2 -2 -2 -2 -2 -2 -1
2 3 5 11 11 9 9 8 7 7 6 6 6 8 5 3 3 2 1 1 1 0 -0 -0 -1 -1 -1 -1 -1 -2 -2 -2 -2 -2 -2 -2 -2 -2 -2 -2 -2 -2 -2 -2 -2 -2 -2 -1 -1
4 5 10 11 10 8 7 6 6 7 7 6 6 8 7 3 1 1 1 0 1 0 -0 -0 -1 -1 -1 -1 -1 -2 -2 -2 -2 -2 -2 -2 -2 -2 -2 -2 -2 -2 -2 -2 -1 -1 -1 -1 -0
6 6 11 13 10 7 7 6 7 7 6 6 7 7 7 2 2 1 1 1 0 0 -0 -0 1 -0 -1 -1 -1 -1 -2 -2 -2 -2 -2 -2 -2 -2 -2 -2 -2 -2 -2 -1 -1 -1 -0 -0 -0
7 9 11 11 10 9 7 6 7 7 6 7 5 8 6 4 2 1 1 1 1 0 -0 -0 -0 0 1 -0 -1 -1 -1 -1 -2 -2 -2 -2 -2 -2 -2 -2 -2 -1 -1 -1 -1 -0 -0 -0 -0
6 8 11 10 10 10 6 6 6 6 7 4 5 8 9 4 2 1 1 1 1 1 0 0 0 -0 -0 -0 1 -0 -1 -1 -1 -1 -1 -1 -1 -1 -1 -1 -1 -1 -1 -0 0 1 0 0 -0
4 10 12 11 10 9 6 7 5 5 6 6 5 5 4 2 2 2 2 2 2 1 0 0 0 -0 -0 -0 0 1 0 -0 0 0 1 1 0 0 0 0 -1 -1 -1 -0 1 1 0 -0 -0
8 11 10 7 7 7 6 6 6 7 6 7 6 4 3 3 3 4 4 3 3 2 1 0 0 0 0 -0 -0 0 -0 -0 0 0 1 1 1 1 0 1 -0 -1 -0 -1 -0 -1 -0 1 1
7 11 8 7 6 6 6 6 6 7 8 6 7 6 4 4 4 4 3 3 3 2 1 1 0 0 0 0 -0 0 0 0 1 1 1 1 1 1 1 1 1 1 1 1 0 1 1 1 1
9 7 7 6 5 6 7 6 7 7 7 4 4 4 4 5 4 4 4 3 2 2 1 1 0 0 0 -0 -0 -0 -0 0 0 1 0 1 1 1 1 1 1 1 1 1 1 1 1 1 1
9 8 6 6 6 6 6 7 8 7 6 4 4 4 5 4 4 3 3 3 2 2 2 1 1 0 0 0 -0 -0 -0 0 0 0 0 1 1 1 1 1 1 1 1 1 1 1 1 1 1
9 9 8 7 7 7 7 7 7 7 5 5 4 5 5 5 4 4 3 3 2 2 2 1 0 1 0 0 -0 -0 -0 -0 -0 1 0 1 1 1 1 1 1 1 1 1 1 1 1 1 1
10 12 10 9 8 8 7 9 9 7 5 5 5 5 5 4 4 4 3 3 2 2 1 1 1 0 1 0 0 -0 -0 -0 -0 1 0 0 0 1 1 1 1 1 1 1 1 1 1 1 1
13 13 15 10 8 7 8 13 8 5 6 6 6 5 5 4 4 3 3 2 2 2 2 1 0 1 0 0 0 0 -0 -0 1 1 0 0 0 0 1 1 1 1 1 1 1 2 2 2 2
15 18 17 15 11 9 9 12 8 5 6 6 6 6 5 4 4 3 3 2 2 2 2 1 1 1 0 0 -0 -0 -0 0 1 1 1 0 0 0 1 1 1 1 1 1 1 1 1 2 1
17 18 17 17 13 12 11 11 8 6 6 7 6 5 5 5 4 3 3 2 2 2 2 1 1 1 0 0 0 0 0 0 0 0 1 0 0 0 1 1 1 1 1 1 1 1 1 1 1
15 17 18 16 12 13 12 12 11 8 8 8 7 6 5 5 4 3 3 2 2 2 2 2 1 1 1 1 1 1 2 1 1 0 1 0 0 0 1 1 1 0 0 1 1 1 2 2 1
15 16 18 16 14 15 15 15 14 12 11 9 8 7 6 6 5 4 3 3 2 2 2 2 2 1 1 1 1 1 1 1 1 0 0 0 0 0 0 1 1 1 1 1 1 1 2 2 1
15 16 16 17 14 15 17 18 16 13 12 11 9 8 7 7 6 5 4 3 3 3 2 2 2 1 1 1 1 1 1 1 1 1 1 0 0 0 1 1 1 1 1 1 1 1 1 3 2
17 12 13 14 16 20 15 23 18 16 14 13 11 10 9 8 6 5 5 4 3 3 2 2 2 2 1 1 1 2 2 3 2 1 1 0 0 1 1 1 1 0 0 1 1 1 1 2 3
15 12 13 14 15 17 17 20 20 15 16 14 12 11 10 8 7 6 5 4 3 2 2 2 2 1 1 1 1 1 2 2 1 2 2 1 1 1 1 0 0 0 1 1 1 1 1 1 2
9 12 14 14 16 21 17 18 21 17 15 13 11 12 10 9 8 6 5 4 4 3 2 2 2 2 1 2 1 1 2 2 2 2 2 1 1 2 2 1 1 1 1 1 1 1 1 2 1
9 13 21 23 23 23 16 17 18 14 13 13 12 11 10 10 9 8 6 5 5 4 3 2 2 2 2 2 2 1 1 1 2 2 2 2 4 5 5 5 5 5 5 4 3 3 3 3 2
11 13 18 23 21 20 16 19 18 12 10 9 9 9 8 7 8 7 6 6 5 5 3 3 3 3 2 2 1 1 1 1 3 4 5 6 7 7 6 7 6 6 6 5 4 5 5 5 5
12 16 10 15 15 19 18 16 14 12 11 11 9 8 8 7 7 7 6 7 5 5 5 4 3 3 3 2 4 5 5 6 7 7 7 8 8 8 8 9 9 9 9 8 8 9 8 8 8
10 9 16 15 24 25 18 17 18 13 12 10 11 10 9 8 7 6 6 6 5 6 6 5 4 6 7 6 6 7 8 8 9 9 10 10 9 9 9 10 10 10 10 9 9 10 9 9 10
12 13 13 13 15 19 19 18 12 12 11 12 10 10 10 9 8 8 7 6 6 7 6 7 7 7 7 8 9 9 10 10 10 10 10 10 10 11 11 11 11 12 12 12 12 12 11 12 11
10 12 12 17 17 16 15 16 9 10 10 9 10 10 10 9 9 8 8 7 7 7 7 8 8 8 8 9 9 10 10 11 11 12 12 12 12 12 12 13 13 13 13 13 14 14 13 14 13